Time,TemperatureF,DewpointF,PressureIn,WindDirection,WindDirectionDegrees,WindSpeedMPH,WindSpeedGustMPH,Humidity,HourlyPrecipIn,Conditions,Clouds,dailyrainin,SolarRadiationWatts/m^2,SoftwareType,DateUTC
2013-03-17 00:02:00,54.0,43.0,-100.00,NNE,23,4.0,12.0,66,0.00,,,0.00,0.000000,,2013-03-17 05:02:00,
2013-03-17 00:32:00,51.0,46.0,-100.00,NNE,20,5.0,10.0,84,0.01,,,0.01,0.000000,,2013-03-17 05:32:00,
2013-03-17 00:42:00,51.0,46.0,-100.00,NNE,20,5.0,10.0,84,0.01,,,0.01,0.000000,,2013-03-17 05:42:00,
2013-03-17 00:52:00,51.0,46.0,-100.00,NNE,20,5.0,10.0,84,0.01,,,0.01,0.000000,,2013-03-17 05:52:00,
2013-03-17 01:02:00,51.0,46.0,-100.00,NNE,20,5.0,10.0,84,0.01,,,0.01,0.000000,,2013-03-17 06:02:00,
2013-03-17 01:32:00,49.0,46.0,-100.00,NE,49,3.0,10.0,90,0.02,,,0.03,0.000000,,2013-03-17 06:32:00,
2013-03-17 01:42:00,49.0,46.0,-100.00,NE,49,3.0,10.0,90,0.02,,,0.03,0.000000,,2013-03-17 06:42:00,
2013-03-17 01:52:00,49.0,46.0,-100.00,NE,49,3.0,10.0,90,0.02,,,0.03,0.000000,,2013-03-17 06:52:00,
2013-03-17 02:02:00,49.0,46.0,-100.00,NE,49,3.0,10.0,90,0.02,,,0.03,0.000000,,2013-03-17 07:02:00,
2013-03-17 02:32:00,48.0,48.0,-100.00,ENE,60,3.0,6.0,99,0.00,,,0.03,0.000000,,2013-03-17 07:32:00,
2013-03-17 02:42:00,48.0,48.0,-100.00,ENE,60,3.0,6.0,99,0.00,,,0.03,0.000000,,2013-03-17 07:42:00,
2013-03-17 02:52:00,48.0,48.0,-100.00,ENE,60,3.0,6.0,99,0.00,,,0.03,0.000000,,2013-03-17 07:52:00,
2013-03-17 03:02:00,48.0,48.0,-100.00,ENE,60,3.0,6.0,99,0.00,,,0.03,0.000000,,2013-03-17 08:02:00,
2013-03-17 03:33:00,48.0,48.0,-100.00,NE,53,2.0,4.0,100,0.00,,,0.03,0.000000,,2013-03-17 08:33:00,
2013-03-17 03:42:00,48.0,48.0,-100.00,NE,53,2.0,4.0,100,0.00,,,0.03,0.000000,,2013-03-17 08:42:00,
2013-03-17 03:52:00,48.0,48.0,-100.00,NE,53,2.0,4.0,100,0.00,,,0.03,0.000000,,2013-03-17 08:52:00,
2013-03-17 04:02:00,48.0,48.0,-100.00,NE,53,2.0,4.0,100,0.00,,,0.03,0.000000,,2013-03-17 09:02:00,
2013-03-17 04:33:00,48.0,48.0,-100.00,NNE,26,4.0,7.0,100,0.00,,,0.03,0.000000,,2013-03-17 09:33:00,
2013-03-17 04:43:00,48.0,48.0,-100.00,NNE,26,4.0,7.0,100,0.00,,,0.03,0.000000,,2013-03-17 09:43:00,
2013-03-17 04:53:00,48.0,48.0,-100.00,NNE,26,4.0,7.0,100,0.00,,,0.03,0.000000,,2013-03-17 09:53:00,
2013-03-17 05:03:00,48.0,48.0,-100.00,NNE,26,4.0,7.0,100,0.00,,,0.03,0.000000,,2013-03-17 10:03:00,
2013-03-17 05:33:00,47.0,47.0,-100.00,NNE,16,6.0,11.0,100,0.00,,,0.03,0.000000,,2013-03-17 10:33:00,
2013-03-17 05:42:00,47.0,47.0,-100.00,NNE,16,6.0,11.0,100,0.00,,,0.03,0.000000,,2013-03-17 10:42:00,
2013-03-17 05:52:00,47.0,47.0,-100.00,NNE,16,6.0,11.0,100,0.00,,,0.03,0.000000,,2013-03-17 10:52:00,
2013-03-17 06:02:00,47.0,47.0,-100.00,NNE,16,6.0,11.0,100,0.00,,,0.03,0.000000,,2013-03-17 11:02:00,
2013-03-17 06:32:00,46.0,45.0,-100.00,NE,36,5.0,12.0,95,0.00,,,0.03,0.000000,,2013-03-17 11:32:00,
2013-03-17 06:43:00,46.0,45.0,-100.00,NE,36,5.0,12.0,95,0.00,,,0.03,0.000000,,2013-03-17 11:43:00,
2013-03-17 06:52:00,46.0,45.0,-100.00,NE,36,5.0,12.0,95,0.00,,,0.03,0.000000,,2013-03-17 11:52:00,
2013-03-17 07:02:00,46.0,45.0,-100.00,NE,36,5.0,12.0,95,0.00,,,0.03,0.000000,,2013-03-17 12:02:00,
2013-03-17 07:33:00,46.0,45.0,-100.00,NNE,31,6.0,9.0,96,0.00,,,0.03,1.000000,,2013-03-17 12:33:00,
2013-03-17 07:43:00,46.0,45.0,-100.00,NNE,31,6.0,9.0,96,0.00,,,0.03,1.000000,,2013-03-17 12:43:00,
2013-03-17 07:52:00,46.0,45.0,-100.00,NNE,31,6.0,9.0,96,0.00,,,0.03,1.000000,,2013-03-17 12:52:00,
2013-03-17 08:02:00,46.0,45.0,-100.00,NNE,31,6.0,9.0,96,0.00,,,0.03,1.000000,,2013-03-17 13:02:00,
2013-03-17 08:32:00,46.0,45.0,-100.00,NE,54,4.0,14.0,96,0.00,,,0.03,19.000000,,2013-03-17 13:32:00,
2013-03-17 08:43:00,46.0,45.0,-100.00,NE,54,4.0,14.0,96,0.00,,,0.03,19.000000,,2013-03-17 13:43:00,
2013-03-17 08:52:00,46.0,45.0,-100.00,NE,54,4.0,14.0,96,0.00,,,0.03,19.000000,,2013-03-17 13:52:00,
2013-03-17 09:02:00,46.0,45.0,-100.00,NE,54,4.0,14.0,96,0.00,,,0.03,19.000000,,2013-03-17 14:02:00,
2013-03-17 09:33:00,47.0,45.0,-100.00,ENE,61,5.0,10.0,94,0.00,,,0.03,68.000000,,2013-03-17 14:33:00,
2013-03-17 09:42:00,47.0,45.0,-100.00,ENE,61,5.0,10.0,94,0.00,,,0.03,68.000000,,2013-03-17 14:42:00,
2013-03-17 09:53:00,47.0,45.0,-100.00,ENE,61,5.0,10.0,94,0.00,,,0.03,68.000000,,2013-03-17 14:53:00,
2013-03-17 10:02:00,47.0,45.0,-100.00,ENE,61,5.0,10.0,94,0.00,,,0.03,68.000000,,2013-03-17 15:02:00,
2013-03-17 10:33:00,50.0,47.0,-100.00,ENE,64,4.0,10.0,89,0.00,,,0.03,164.000000,,2013-03-17 15:33:00,
2013-03-17 10:43:00,50.0,47.0,-100.00,ENE,64,4.0,10.0,89,0.00,,,0.03,164.000000,,2013-03-17 15:43:00,
2013-03-17 10:53:00,50.0,47.0,-100.00,ENE,64,4.0,10.0,89,0.00,,,0.03,164.000000,,2013-03-17 15:53:00,
2013-03-17 11:03:00,50.0,47.0,-100.00,ENE,64,4.0,10.0,89,0.00,,,0.03,164.000000,,2013-03-17 16:03:00,
2013-03-17 11:33:00,51.0,47.0,-100.00,ENE,72,4.0,10.0,85,0.00,,,0.03,164.000000,,2013-03-17 16:33:00,
2013-03-17 11:43:00,51.0,47.0,-100.00,ENE,72,4.0,10.0,85,0.00,,,0.03,164.000000,,2013-03-17 16:43:00,
2013-03-17 11:52:00,51.0,47.0,-100.00,ENE,72,4.0,10.0,85,0.00,,,0.03,164.000000,,2013-03-17 16:52:00,
2013-03-17 12:02:00,51.0,47.0,-100.00,ENE,72,4.0,10.0,85,0.00,,,0.03,164.000000,,2013-03-17 17:02:00,
2013-03-17 12:33:00,49.0,44.0,-100.00,NE,43,7.0,12.0,83,0.00,,,0.03,138.000000,,2013-03-17 17:33:00,
2013-03-17 12:42:00,49.0,44.0,-100.00,NE,43,7.0,12.0,83,0.00,,,0.03,138.000000,,2013-03-17 17:42:00,
2013-03-17 12:53:00,49.0,44.0,-100.00,NE,43,7.0,12.0,83,0.00,,,0.03,138.000000,,2013-03-17 17:53:00,
2013-03-17 13:02:00,49.0,44.0,-100.00,NE,43,7.0,12.0,83,0.00,,,0.03,138.000000,,2013-03-17 18:02:00,
2013-03-17 13:32:00,54.0,48.0,-100.00,East,82,4.0,10.0,79,0.00,,,0.03,292.000000,,2013-03-17 18:32:00,
2013-03-17 13:42:00,54.0,48.0,-100.00,East,82,4.0,10.0,79,0.00,,,0.03,292.000000,,2013-03-17 18:42:00,
2013-03-17 13:52:00,54.0,48.0,-100.00,East,82,4.0,10.0,79,0.00,,,0.03,292.000000,,2013-03-17 18:52:00,
2013-03-17 14:02:00,54.0,48.0,-100.00,East,82,4.0,10.0,79,0.00,,,0.03,292.000000,,2013-03-17 19:02:00,
2013-03-17 14:33:00,54.0,47.0,-100.00,NNE,28,6.0,10.0,77,0.00,,,0.03,320.000000,,2013-03-17 19:33:00,
2013-03-17 14:42:00,54.0,47.0,-100.00,NNE,28,6.0,10.0,77,0.00,,,0.03,320.000000,,2013-03-17 19:42:00,
2013-03-17 14:53:00,54.0,47.0,-100.00,NNE,28,6.0,10.0,77,0.00,,,0.03,320.000000,,2013-03-17 19:53:00,
2013-03-17 15:02:00,54.0,47.0,-100.00,NNE,28,6.0,10.0,77,0.00,,,0.03,320.000000,,2013-03-17 20:02:00,
2013-03-17 15:33:00,51.0,43.0,-100.00,North,0,11.0,17.0,73,0.00,,,0.03,406.000000,,2013-03-17 20:33:00,
2013-03-17 15:43:00,51.0,43.0,-100.00,North,0,11.0,17.0,73,0.00,,,0.03,406.000000,,2013-03-17 20:43:00,
2013-03-17 15:52:00,51.0,43.0,-100.00,North,0,11.0,17.0,73,0.00,,,0.03,406.000000,,2013-03-17 20:52:00,
2013-03-17 16:03:00,51.0,43.0,-100.00,North,0,11.0,17.0,73,0.00,,,0.03,406.000000,,2013-03-17 21:03:00,
2013-03-17 16:33:00,45.0,40.0,-100.00,NNE,12,9.0,17.0,83,0.00,,,0.03,166.000000,,2013-03-17 21:33:00,
2013-03-17 16:43:00,45.0,40.0,-100.00,NNE,12,9.0,17.0,83,0.00,,,0.03,166.000000,,2013-03-17 21:43:00,
2013-03-17 16:52:00,45.0,40.0,-100.00,NNE,12,9.0,17.0,83,0.00,,,0.03,166.000000,,2013-03-17 21:52:00,
2013-03-17 17:03:00,45.0,40.0,-100.00,NNE,12,9.0,17.0,83,0.00,,,0.03,166.000000,,2013-03-17 22:03:00,
2013-03-17 17:33:00,42.0,41.0,-100.00,NNE,33,6.0,14.0,95,0.03,,,0.06,62.000000,,2013-03-17 22:33:00,
2013-03-17 17:42:00,42.0,41.0,-100.00,NNE,33,6.0,14.0,95,0.03,,,0.06,62.000000,,2013-03-17 22:42:00,
2013-03-17 17:53:00,42.0,41.0,-100.00,NNE,33,6.0,14.0,95,0.03,,,0.06,62.000000,,2013-03-17 22:53:00,
2013-03-17 18:02:00,42.0,41.0,-100.00,NNE,33,6.0,14.0,95,0.03,,,0.06,62.000000,,2013-03-17 23:02:00,
2013-03-17 18:33:00,43.0,42.0,-100.00,ENE,72,4.0,10.0,98,0.01,,,0.07,63.000000,,2013-03-17 23:33:00,
2013-03-17 18:53:00,43.0,42.0,-100.00,ENE,72,4.0,10.0,98,0.01,,,0.07,63.000000,,2013-03-17 23:53:00,
2013-03-17 19:03:00,43.0,42.0,-100.00,ENE,72,4.0,10.0,98,0.01,,,0.07,63.000000,,2013-03-18 00:03:00,
2013-03-17 20:33:00,43.0,42.0,-100.00,East,79,3.0,8.0,98,-99.99,,,0.07,0.000000,,2013-03-18 01:33:00,
2013-03-17 20:42:00,43.0,42.0,-100.00,East,79,3.0,8.0,98,-99.99,,,0.07,0.000000,,2013-03-18 01:42:00,
2013-03-17 20:52:00,43.0,42.0,-100.00,East,79,3.0,8.0,98,-99.99,,,0.07,0.000000,,2013-03-18 01:52:00,
2013-03-17 21:02:00,43.0,42.0,-100.00,East,79,3.0,8.0,98,-99.99,,,0.07,0.000000,,2013-03-18 02:02:00,
2013-03-17 21:32:00,42.0,41.0,-100.00,NE,41,3.0,7.0,97,0.00,,,0.07,0.000000,,2013-03-18 02:32:00,
2013-03-17 21:42:00,42.0,41.0,-100.00,NE,41,3.0,7.0,97,0.00,,,0.07,0.000000,,2013-03-18 02:42:00,
2013-03-17 21:52:00,42.0,41.0,-100.00,NE,41,3.0,7.0,97,0.00,,,0.07,0.000000,,2013-03-18 02:52:00,
2013-03-17 22:02:00,42.0,41.0,-100.00,NE,41,3.0,7.0,97,0.00,,,0.07,0.000000,,2013-03-18 03:02:00,
2013-03-17 22:33:00,42.0,42.0,-100.00,ESE,102,2.0,5.0,99,0.00,,,0.07,0.000000,,2013-03-18 03:33:00,
2013-03-17 22:42:00,42.0,42.0,-100.00,ESE,102,2.0,5.0,99,0.00,,,0.07,0.000000,,2013-03-18 03:42:00,
2013-03-17 22:53:00,42.0,42.0,-100.00,ESE,102,2.0,5.0,99,0.00,,,0.07,0.000000,,2013-03-18 03:53:00,
2013-03-17 23:03:00,42.0,42.0,-100.00,ESE,102,2.0,5.0,99,0.00,,,0.07,0.000000,,2013-03-18 04:03:00,
2013-03-17 23:33:00,44.0,43.0,-100.00,South,177,3.0,8.0,98,0.00,,,0.07,0.000000,,2013-03-18 04:33:00,
2013-03-17 23:42:00,44.0,43.0,-100.00,South,177,3.0,8.0,98,0.00,,,0.07,0.000000,,2013-03-18 04:42:00,
2013-03-17 23:53:00,44.0,43.0,-100.00,South,177,3.0,8.0,98,0.00,,,0.07,0.000000,,2013-03-18 04:53:00,